When you browse on this site, cookies collect data to enhance your experience and personalize the content and advertising you see.
Visit our Privacy Policy to learn more. By continuing to use the site, you agree to this use of cookies and data.
  • In Österreich
  • Länderverzeichnis
  • Für 7 Tage
  • Wassertemperatur
  • Wetterkarte
  • News
  • Widgets
  • user-avatar
    Anmelden

    Stündliche Wetter Fakuoka

    Heute, 16 Dezember, Montag

    Zeit Temperatur Niederschläge Wind Luftdruck Luftfeuchtigkeit
    00:00 +9°C° 0 mm 1 m/S 748 mmHg 65%
    01:00 +9°C° 0 mm 1 m/S 747 mmHg 66%
    02:00 +9°C° 0 mm 1 m/S 747 mmHg 67%
    03:00 +9°C° 0 mm 1 m/S 747 mmHg 68%
    04:00 +9°C° 0 mm 1 m/S 747 mmHg 69%
    05:00 +9°C° 0 mm 1 m/S 747 mmHg 71%
    06:00 +8°C° 0 mm 0 m/S 747 mmHg 73%
    07:00 +10°C° 0 mm 1 m/S 747 mmHg 71%
    08:00 +10°C° 0 mm 1 m/S 747 mmHg 70%
    09:00 +11°C° 0 mm 1 m/S 747 mmHg 68%
    10:00 +13°C° 0 mm 1 m/S 747 mmHg 64%
    11:00 +15°C° 0 mm 1 m/S 747 mmHg 61%
    12:00 +16°C° 0 mm 1 m/S 747 mmHg 58%
    13:00 +16°C° 0.2 mm 1 m/S 746 mmHg 62%
    14:00 +15°C° 0.2 mm 1 m/S 745 mmHg 67%
    15:00 +14°C° 0.2 mm 1 m/S 745 mmHg 72%
    16:00 +14°C° 0.1 mm 1 m/S 745 mmHg 75%
    17:00 +13°C° 0.1 mm 1 m/S 745 mmHg 78%
    18:00 +12°C° 0.1 mm 0 m/S 745 mmHg 81%
    19:00 +13°C° 0.2 mm 1 m/S 744 mmHg 83%
    20:00 +13°C° 0.2 mm 1 m/S 744 mmHg 85%
    21:00 +13°C° 0.2 mm 1 m/S 744 mmHg 86%
    22:00 +13°C° 0.4 mm 1 m/S 744 mmHg 88%
    23:00 +13°C° 0.4 mm 1 m/S 744 mmHg 89%

    Morgen, 17 Dezember, Dienstag

    Zeit Temperatur Niederschläge Wind Luftdruck Luftfeuchtigkeit
    00:00 +12°C° 0.4 mm 0 m/S 744 mmHg 90%
    01:00 +13°C° 0.6 mm 1 m/S 743 mmHg 91%
    02:00 +13°C° 0.6 mm 1 m/S 743 mmHg 91%
    03:00 +13°C° 0.6 mm 1 m/S 743 mmHg 92%
    04:00 +13°C° 0.2 mm 1 m/S 742 mmHg 92%
    05:00 +13°C° 0.2 mm 1 m/S 742 mmHg 92%
    06:00 +13°C° 0.2 mm 1 m/S 742 mmHg 92%
    07:00 +13°C° 0 mm 1 m/S 742 mmHg 91%
    08:00 +14°C° 0 mm 1 m/S 742 mmHg 90%
    09:00 +14°C° 0 mm 1 m/S 742 mmHg 89%
    10:00 +15°C° 0 mm 2 m/S 742 mmHg 85%
    11:00 +16°C° 0 mm 2 m/S 742 mmHg 81%
    12:00 +17°C° 0 mm 2 m/S 741 mmHg 77%
    13:00 +16°C° 0.6 mm 2 m/S 741 mmHg 82%
    14:00 +16°C° 0.6 mm 2 m/S 740 mmHg 86%
    15:00 +15°C° 0.6 mm 2 m/S 740 mmHg 90%
    16:00 +15°C° 0.2 mm 2 m/S 740 mmHg 91%
    17:00 +16°C° 0.2 mm 2 m/S 740 mmHg 92%
    18:00 +16°C° 0.2 mm 1 m/S 740 mmHg 93%
    19:00 +16°C° 0.1 mm 2 m/S 740 mmHg 93%
    20:00 +15°C° 0.1 mm 2 m/S 740 mmHg 92%
    21:00 +15°C° 0.1 mm 2 m/S 740 mmHg 91%
    22:00 +15°C° 0.1 mm 2 m/S 741 mmHg 90%
    23:00 +14°C° 0.1 mm 3 m/S 741 mmHg 89%

    übermorgen, 18 Dezember, Mittwoch

    Zeit Temperatur Niederschläge Wind Luftdruck Luftfeuchtigkeit
    00:00 +13°C° 0.1 mm 3 m/S 741 mmHg 88%
    01:00 +13°C° 0 mm 3 m/S 741 mmHg 86%
    02:00 +13°C° 0 mm 3 m/S 741 mmHg 84%
    03:00 +13°C° 0 mm 3 m/S 741 mmHg 83%
    04:00 +12°C° 0 mm 3 m/S 741 mmHg 82%
    05:00 +12°C° 0 mm 3 m/S 741 mmHg 81%
    06:00 +11°C° 0 mm 3 m/S 742 mmHg 80%
    07:00 +12°C° 0 mm 2 m/S 742 mmHg 78%
    08:00 +13°C° 0 mm 2 m/S 743 mmHg 76%
    09:00 +13°C° 0 mm 2 m/S 743 mmHg 75%
    10:00 +13°C° 0 mm 2 m/S 743 mmHg 70%
    11:00 +14°C° 0 mm 2 m/S 743 mmHg 66%
    12:00 +15°C° 0 mm 2 m/S 743 mmHg 61%
    13:00 +15°C° 0 mm 2 m/S 743 mmHg 58%
    14:00 +15°C° 0 mm 2 m/S 743 mmHg 55%
    15:00 +15°C° 0 mm 2 m/S 743 mmHg 52%
    16:00 +14°C° 0 mm 2 m/S 743 mmHg 55%
    17:00 +13°C° 0 mm 2 m/S 743 mmHg 59%
    18:00 +12°C° 0 mm 2 m/S 743 mmHg 63%
    19:00 +12°C° 0 mm 1 m/S 743 mmHg 65%
    20:00 +12°C° 0 mm 1 m/S 743 mmHg 67%
    21:00 +11°C° 0 mm 1 m/S 743 mmHg 70%
    22:00 +11°C° 0 mm 1 m/S 743 mmHg 70%
    23:00 +10°C° 0 mm 0 m/S 744 mmHg 71%

    19 Dezember, Donnerstag

    Zeit Temperatur Niederschläge Wind Luftdruck Luftfeuchtigkeit
    00:00 +10°C° 0 mm 0 m/S 744 mmHg 72%
    01:00 +9°C° 0 mm 0 m/S 744 mmHg 73%
    02:00 +10°C° 0 mm 1 m/S 743 mmHg 73%
    03:00 +10°C° 0 mm 1 m/S 743 mmHg 73%
    04:00 +10°C° 0 mm 1 m/S 744 mmHg 73%
    05:00 +10°C° 0 mm 1 m/S 744 mmHg 72%
    06:00 +9°C° 0 mm 1 m/S 744 mmHg 71%
    07:00 +10°C° 0 mm 1 m/S 744 mmHg 69%
    08:00 +10°C° 0 mm 1 m/S 744 mmHg 67%
    09:00 +10°C° 0 mm 2 m/S 745 mmHg 65%
    10:00 +10°C° 0 mm 2 m/S 745 mmHg 59%
    11:00 +11°C° 0 mm 3 m/S 745 mmHg 53%
    12:00 +12°C° 0 mm 3 m/S 745 mmHg 47%
    13:00 +12°C° 0 mm 3 m/S 745 mmHg 47%
    14:00 +12°C° 0 mm 3 m/S 745 mmHg 47%
    15:00 +11°C° 0 mm 4 m/S 745 mmHg 48%
    16:00 +11°C° 0 mm 3 m/S 745 mmHg 47%
    17:00 +10°C° 0 mm 3 m/S 746 mmHg 47%
    18:00 +9°C° 0 mm 2 m/S 746 mmHg 47%
    19:00 +9°C° 0 mm 2 m/S 747 mmHg 48%
    20:00 +9°C° 0 mm 2 m/S 747 mmHg 48%
    21:00 +8°C° 0 mm 2 m/S 747 mmHg 49%
    22:00 +8°C° 0 mm 2 m/S 747 mmHg 49%
    23:00 +8°C° 0 mm 2 m/S 748 mmHg 50%

    20 Dezember, Freitag

    Zeit Temperatur Niederschläge Wind Luftdruck Luftfeuchtigkeit
    00:00 +7°C° 0 mm 3 m/S 748 mmHg 50%
    01:00 +7°C° 0 mm 2 m/S 748 mmHg 52%
    02:00 +7°C° 0 mm 2 m/S 748 mmHg 54%
    03:00 +7°C° 0 mm 2 m/S 748 mmHg 55%
    04:00 +6°C° 0 mm 2 m/S 748 mmHg 55%
    05:00 +6°C° 0 mm 2 m/S 748 mmHg 55%
    06:00 +6°C° 0 mm 2 m/S 748 mmHg 55%
    07:00 +7°C° 0 mm 2 m/S 749 mmHg 54%
    08:00 +7°C° 0 mm 2 m/S 749 mmHg 53%
    09:00 +7°C° 0 mm 3 m/S 750 mmHg 52%
    10:00 +8°C° 0 mm 2 m/S 749 mmHg 50%
    11:00 +9°C° 0 mm 2 m/S 749 mmHg 48%
    12:00 +10°C° 0 mm 2 m/S 749 mmHg 46%
    13:00 +10°C° 0 mm 2 m/S 749 mmHg 46%
    14:00 +10°C° 0 mm 2 m/S 749 mmHg 46%
    15:00 +10°C° 0 mm 2 m/S 748 mmHg 47%
    16:00 +9°C° 0 mm 2 m/S 748 mmHg 49%
    17:00 +9°C° 0 mm 2 m/S 748 mmHg 52%
    18:00 +8°C° 0 mm 2 m/S 748 mmHg 54%
    19:00 +8°C° 0 mm 2 m/S 748 mmHg 55%
    20:00 +8°C° 0 mm 2 m/S 749 mmHg 55%
    21:00 +8°C° 0 mm 2 m/S 749 mmHg 56%
    22:00 +7°C° 0 mm 2 m/S 748 mmHg 57%
    23:00 +8°C° 0 mm 1 m/S 748 mmHg 57%

    21 Dezember, Samstag

    Zeit Temperatur Niederschläge Wind Luftdruck Luftfeuchtigkeit
    00:00 +8°C° 0 mm 1 m/S 748 mmHg 58%
    01:00 +8°C° 0.2 mm 1 m/S 748 mmHg 62%
    02:00 +8°C° 0.2 mm 1 m/S 748 mmHg 66%
    03:00 +7°C° 0.2 mm 1 m/S 748 mmHg 70%
    04:00 +7°C° 0.6 mm 1 m/S 748 mmHg 74%
    05:00 +7°C° 0.6 mm 1 m/S 747 mmHg 77%
    06:00 +6°C° 0.6 mm 1 m/S 747 mmHg 81%
    07:00 +6°C° 0.6 mm 1 m/S 747 mmHg 81%
    08:00 +7°C° 0.6 mm 1 m/S 747 mmHg 80%
    09:00 +7°C° 0.6 mm 1 m/S 747 mmHg 80%
    10:00 +7°C° 0.6 mm 1 m/S 747 mmHg 79%
    11:00 +7°C° 0.6 mm 1 m/S 746 mmHg 77%
    12:00 +8°C° 0.6 mm 1 m/S 746 mmHg 76%
    13:00 +8°C° 0.4 mm 1 m/S 746 mmHg 76%
    14:00 +8°C° 0.4 mm 1 m/S 745 mmHg 76%
    15:00 +8°C° 0.4 mm 1 m/S 745 mmHg 76%
    16:00 +7°C° 0.5 mm 2 m/S 745 mmHg 78%
    17:00 +7°C° 0.5 mm 2 m/S 745 mmHg 79%
    18:00 +7°C° 0.5 mm 2 m/S 745 mmHg 81%
    19:00 +7°C° 0 mm 2 m/S 745 mmHg 81%
    20:00 +7°C° 0 mm 2 m/S 745 mmHg 81%
    21:00 +7°C° 0 mm 2 m/S 745 mmHg 81%
    22:00 +7°C° 0 mm 2 m/S 745 mmHg 81%
    23:00 +7°C° 0 mm 2 m/S 744 mmHg 82%
    Mehr zeigen